Weather History for St. Cloud, MN

Change the Weather History Date:

Sunday, October 24, 2010

  Actual Average Record
Temperature  
Mean Temperature 49 °F 42 °F  
Max Temperature 51 °F 53 °F 77 °F (1989)
Min Temperature 47 °F 32 °F 15 °F (2002)
Degree Days  
Heating Degree Days 16 22  
Month to date heating degree days 307 429  
Since 1 July heating degree days 552 715  
Cooling Degree Days 0 0  
Month to date cooling degree days 2 0  
Year to date cooling degree days 606 463  
Moisture  
Dew Point 48 °F    
Average Humidity 97    
Maximum Humidity 100    
Minimum Humidity 93    
Precipitation  
Precipitation 0.32 in 0.07 in 1.21 in (1906)
Month to date precipitation 0.49 2.06  
Year to date precipitation 28.27 25.10  
Snow  
Snow 0.00 in 0.00 in 0.50 in (2001)
Month to date snowfall 0.0 0.4  
Since 1 July snowfall 0.0 0.4  
Since 1 September snowfall 0.0 0.4  
Snow Depth 0.00 in    
Sea Level Pressure  
Sea Level Pressure 29.61 in    
Wind  
Wind Speed 6 mph (North)    
Max Wind Speed 14 mph    
Max Gust Speed 21 mph    
Visibility 5 miles    
Events Rain , Thunderstorm    
T = Trace of Precipitation, MM = Missing Value Source: NWS Daily Summary

Daily Weather History Graph

Daily Weather History Graph

Search for Another Location

Airport:

Trip Planner

Search our weather history database for the weather conditions in past years. The results will help you decide how hot, cold, wet, or windy it might be!

Date:

Astronomy

Oct. 24, 2010 Rise Set
Actual Time 7:44 AM CDT 6:15 PM CDT
Civil Twilight 7:14 AM CDT 6:45 PM CDT
Nautical Twilight 6:39 AM CDT 7:20 PM CDT
Astronomical Twilight 6:05 AM CDT 7:54 PM CDT
Moon 6:48 PM CDT (10/24) 9:36 AM CDT (10/24)
Length of Visible Light 11h 31m
Length of Day
10h 30m
Full, 97% of the Moon is Illuminated
Oct 24
Full
Oct 30
Last Quarter
Nov 5
New
Nov 13
First Quarter
Nov 21
Full

Hourly Weather History & Observations

Time (CDT) Temp. Windchill Dew Point Humidity Pressure Visibility Wind Dir Wind Speed Gust Speed Precip Events Conditions
12:08 AM 46.4 °F 40.7 °F 46.4 °F 100% 29.76 in 2.0 mi East 12.7 mph 19.6 mph N/A   Overcast
12:17 AM 46.4 °F 40.4 °F 46.4 °F 100% 29.76 in 1.8 mi ENE 13.8 mph - N/A   Overcast
12:53 AM 46.9 °F - 46.0 °F 97% 29.79 in 1.5 mi ENE 10.4 mph - N/A   Overcast
1:10 AM 46.4 °F 41.1 °F 46.4 °F 100% 29.74 in 1.2 mi ENE 11.5 mph - N/A Thunderstorm Overcast
1:25 AM 46.4 °F 41.5 °F 46.4 °F 100% 29.74 in 1.2 mi ENE 10.4 mph - N/A   Overcast
1:53 AM 46.9 °F - 46.9 °F 100% 29.78 in 1.2 mi East 10.4 mph - N/A   Overcast
2:53 AM 46.9 °F - 46.9 °F 100% 29.75 in 1.0 mi ENE 11.5 mph 18.4 mph 0.01 in Rain Light Rain
3:53 AM 48.0 °F - 46.9 °F 96% 29.73 in 1.5 mi ENE 12.7 mph 18.4 mph 0.01 in   Overcast
4:09 AM 48.2 °F - 46.4 °F 93% 29.69 in 2.0 mi ENE 6.9 mph - N/A   Overcast
4:31 AM 48.2 °F - 46.4 °F 93% 29.69 in 3.0 mi ENE 9.2 mph 16.1 mph 0.00 in Rain Light Rain
4:53 AM 48.0 °F - 46.9 °F 96% 29.72 in 7.0 mi NE 9.2 mph - 0.01 in Rain Light Rain
5:01 AM 48.2 °F - 46.4 °F 93% 29.68 in 8.0 mi NE 11.5 mph 19.6 mph 0.00 in Rain Light Rain
5:26 AM 48.2 °F - 46.4 °F 93% 29.69 in 10.0 mi NE 5.8 mph - 0.01 in Rain Light Rain
5:53 AM 48.0 °F - 46.9 °F 96% 29.74 in 10.0 mi NE 6.9 mph - 0.02 in   Overcast
6:53 AM 48.0 °F - 46.9 °F 96% 29.71 in 10.0 mi NE 9.2 mph - 0.01 in   Overcast
7:53 AM 48.9 °F - 46.9 °F 93% 29.68 in 10.0 mi NE 8.1 mph - 0.01 in   Overcast
8:53 AM 48.9 °F - 48.0 °F 97% 29.68 in 3.0 mi NE 5.8 mph - 0.05 in Rain Rain
9:53 AM 48.9 °F - 46.9 °F 93% 29.68 in 1.5 mi NNE 4.6 mph - 0.05 in Rain Light Rain
10:22 AM 48.2 °F - 48.2 °F 100% 29.63 in 2.5 mi NE 6.9 mph - 0.05 in Rain Light Rain
10:50 AM 48.2 °F - 48.2 °F 100% 29.62 in 1.8 mi NE 6.9 mph - 0.07 in Rain Light Rain
10:53 AM 48.9 °F - 48.0 °F 97% 29.66 in 1.5 mi North 3.5 mph - 0.07 in Rain Light Rain
11:25 AM 48.2 °F - 48.2 °F 100% 29.61 in 2.5 mi NNE 5.8 mph - 0.04 in Rain Light Rain
11:32 AM 48.2 °F - 48.2 °F 100% 29.61 in 4.0 mi NNE 5.8 mph - 0.04 in   Overcast
11:45 AM 48.2 °F - 48.2 °F 100% 29.61 in 1.8 mi NE 5.8 mph - 0.04 in Rain Light Rain
11:53 AM 48.9 °F - 48.0 °F 97% 29.65 in 1.8 mi NNE 4.6 mph - 0.05 in Rain Light Rain
12:00 PM 48.2 °F - 48.2 °F 100% 29.61 in 2.0 mi NE 5.8 mph - 0.00 in Rain Light Rain
12:12 PM 48.2 °F - 48.2 °F 100% 29.60 in 3.0 mi NE 6.9 mph - 0.00 in   Overcast
12:39 PM 50.0 °F - 48.2 °F 94% 29.60 in 2.5 mi North 3.5 mph - 0.02 in Rain Light Rain
12:48 PM 50.0 °F - 48.2 °F 94% 29.60 in 3.0 mi North 3.5 mph - 0.02 in Rain Light Rain
12:53 PM 50.0 °F - 48.0 °F 93% 29.63 in 4.0 mi North 3.5 mph - 0.02 in Rain Light Rain
1:53 PM 51.1 °F - 48.9 °F 92% 29.61 in 5.0 mi Calm Calm - 0.01 in   Overcast
2:13 PM 51.8 °F - 48.2 °F 88% 29.57 in 2.5 mi Calm Calm - N/A   Overcast
2:33 PM 51.8 °F - 50.0 °F 94% 29.56 in 2.5 mi North 4.6 mph - N/A   Overcast
2:53 PM 51.1 °F - 50.0 °F 96% 29.59 in 2.5 mi NNW 4.6 mph - N/A   Overcast
3:35 PM 51.8 °F - 50.0 °F 94% 29.55 in 3.0 mi NNW 5.8 mph - N/A   Overcast
3:53 PM 51.1 °F - 50.0 °F 96% 29.59 in 5.0 mi NW 5.8 mph - N/A   Overcast
4:34 PM 51.8 °F - 50.0 °F 94% 29.56 in 2.0 mi WNW 5.8 mph - N/A   Overcast
4:53 PM 51.1 °F - 50.0 °F 96% 29.59 in 1.8 mi WNW 4.6 mph - N/A   Overcast
4:56 PM 51.8 °F - 50.0 °F 94% 29.56 in 2.0 mi WNW 5.8 mph - N/A   Overcast
5:01 PM 51.8 °F - 50.0 °F 94% 29.55 in 3.0 mi WNW 4.6 mph - N/A   Overcast
5:16 PM 51.8 °F - 50.0 °F 94% 29.55 in 5.0 mi West 5.8 mph - N/A   Overcast
5:28 PM 51.8 °F - 50.0 °F 94% 29.56 in 3.0 mi West 5.8 mph - N/A   Overcast
5:35 PM 51.8 °F - 50.0 °F 94% 29.56 in 2.0 mi West 4.6 mph - N/A   Overcast
5:53 PM 50.0 °F - 50.0 °F 100% 29.58 in 2.0 mi West 3.5 mph - N/A   Overcast
6:00 PM 50.0 °F - 50.0 °F 100% 29.54 in 2.0 mi West 3.5 mph - N/A   Overcast
6:37 PM 50.0 °F - 50.0 °F 100% 29.54 in 2.0 mi WSW 3.5 mph - N/A   Overcast
6:53 PM 50.0 °F - 50.0 °F 100% 29.57 in 2.0 mi SW 5.8 mph - N/A   Overcast
7:00 PM 50.0 °F - 48.2 °F 94% 29.53 in 8.0 mi SW 4.6 mph - N/A   Overcast
7:16 PM 50.0 °F - 48.2 °F 94% 29.53 in 7.0 mi WSW 4.6 mph - N/A   Overcast
7:20 PM 50.0 °F - 48.2 °F 94% 29.53 in 8.0 mi WSW 4.6 mph - N/A   Overcast
7:37 PM 50.0 °F - 48.2 °F 94% 29.53 in 10.0 mi West 5.8 mph - N/A   Overcast
7:53 PM 50.0 °F - 48.9 °F 96% 29.57 in 10.0 mi West 6.9 mph - N/A   Overcast
8:53 PM 50.0 °F - 48.9 °F 96% 29.57 in 10.0 mi WSW 4.6 mph - N/A   Overcast
9:08 PM 50.0 °F - 48.2 °F 94% 29.53 in 10.0 mi WSW 4.6 mph - N/A   Overcast
9:53 PM 50.0 °F - 48.9 °F 96% 29.57 in 10.0 mi WSW 4.6 mph - N/A   Overcast
10:11 PM 50.0 °F - 48.2 °F 94% 29.53 in 10.0 mi WSW 3.5 mph - N/A   Overcast
10:24 PM 50.0 °F - 48.2 °F 94% 29.52 in 10.0 mi SSW 3.5 mph - N/A   Overcast
10:44 PM 50.0 °F - 48.2 °F 94% 29.52 in 10.0 mi SSW 3.5 mph - N/A   Overcast
10:53 PM 48.9 °F - 48.0 °F 97% 29.55 in 10.0 mi SSW 3.5 mph - N/A   Overcast
11:13 PM 48.2 °F - 46.4 °F 93% 29.50 in 10.0 mi Calm Calm - N/A   Mostly Cloudy
11:45 PM 48.2 °F - 48.2 °F 100% 29.49 in 9.0 mi South 3.5 mph - N/A   Overcast
11:53 PM 48.0 °F - 46.9 °F 96% 29.52 in 8.0 mi South 3.5 mph - N/A   Overcast